Date String (YYYY-MM-DD hh:mm:ss) UTC,Instrument flags,absolute air pressure of the measurement (hPa),sample flow rate (lpm),inlet stack bypass flow (lpm),air temperature of the measurement (°C),ambient temperature measured by the external sensor (°C),aerosol sample conditioner tube jacket temperature (°C),OPC LED temperature (°C),internal box temperature (°C),relative humidity of the measurement (%),span deviation,mass concentration of particles derived from Lorenz-Mie calculation of OPC scattering (μg/m³),mass concentration of particles derived from Lorenz-Mie calculation of OPC scattering (μg/m³),mass concentration of particles derived from Lorenz-Mie calculation of OPC scattering (μg/m³)
DateTimeUTC,F1_M11,P_M11,Q1_M11,Q2_M11,T1_M11,T2_M11,T3_M11,T4_M11,T5_M11,U1_M11,ZSPAN_M11,X2_M11,X0_M11,X1_M11
2023-12-12 20:00:00,SystemResetWarning,0832.5,4.99,000.00,020.0,019.1,000.0,028.3,021.2,20.5,0000.0,0005.71,0008.09,0005.47
2023-12-12 20:01:00,SystemResetWarning,0832.5,4.99,000.00,020.0,019.1,000.0,028.3,021.2,20.5,0000.0,0005.73,0008.18,0005.49
2023-12-12 20:02:00,SystemResetWarning,0832.5,5.00,000.00,020.0,019.1,000.0,028.3,021.2,20.5,0000.0,0005.74,0008.21,0005.48
2023-12-12 20:03:00,SystemResetWarning,0832.5,5.00,000.00,020.0,019.1,000.0,028.3,021.2,20.5,0000.0,0005.75,0008.25,0005.49
2023-12-12 20:04:00,SystemResetWarning,0832.5,5.00,000.00,020.0,019.1,000.0,028.3,021.2,20.5,0000.0,0005.74,0008.17,0005.49
2023-12-12 20:05:00,SystemResetWarning,0832.5,5.00,000.00,020.0,019.1,000.0,028.3,021.2,20.5,0000.0,0005.71,0008.09,0005.48
2023-12-12 20:06:00,SystemResetWarning,0832.5,5.00,000.00,020.0,019.1,000.0,028.3,021.2,20.5,0000.0,0005.71,0008.23,0005.47
2023-12-12 20:07:00,SystemResetWarning,0832.5,5.00,000.00,020.0,019.1,000.0,028.3,021.2,20.5,0000.0,0005.72,0008.29,0005.46
2023-12-12 20:08:00,SystemResetWarning,0832.5,5.00,000.00,020.0,019.1,000.0,028.3,021.2,20.5,0000.0,0005.72,0008.32,0005.46
2023-12-12 20:09:00,SystemResetWarning,0832.4,5.01,000.00,020.0,019.0,000.0,028.3,021.2,20.5,0000.0,0005.75,0008.48,0005.46
2023-12-12 20:10:00,SystemResetWarning,0832.4,5.00,000.00,020.0,019.0,000.0,028.3,021.2,20.5,0000.0,0005.75,0008.68,0005.44
2023-12-12 20:11:00,SystemResetWarning,0832.5,5.00,000.00,019.9,019.0,000.0,028.3,021.2,20.5,0000.0,0005.72,0008.59,0005.43
2023-12-12 20:12:00,SystemResetWarning,0832.5,5.00,000.00,019.9,019.0,000.0,028.3,021.2,20.5,0000.0,0005.70,0008.49,0005.42
2023-12-12 20:13:00,SystemResetWarning,0832.5,5.00,000.00,019.9,019.0,000.0,028.3,021.2,20.5,0000.0,0005.70,0008.48,0005.42
2023-12-12 20:14:00,SystemResetWarning,0832.6,5.00,000.00,019.9,019.0,000.0,028.3,021.2,20.6,0000.0,0005.71,0008.50,0005.42
2023-12-12 20:15:00,SystemResetWarning,0832.5,5.01,000.00,019.9,019.0,000.0,028.3,021.2,20.6,0000.0,0005.71,0008.52,0005.43
2023-12-12 20:16:00,SystemResetWarning,0832.5,5.00,000.00,019.9,019.0,000.0,028.3,021.2,20.7,0000.0,0005.72,0008.63,0005.42
2023-12-12 20:17:00,SystemResetWarning,0832.6,5.00,000.00,019.9,019.0,000.0,028.3,021.2,20.7,0000.0,0005.73,0008.62,0005.43
2023-12-12 20:18:00,SystemResetWarning,0832.5,5.00,000.00,019.9,019.0,000.0,028.2,021.2,20.7,0000.0,0005.73,0008.82,0005.42
2023-12-12 20:19:00,SystemResetWarning,0832.5,4.99,000.00,019.9,019.0,000.0,028.2,021.2,20.7,0000.0,0005.76,0009.19,0005.40
2023-12-12 20:20:00,SystemResetWarning,0832.5,5.00,000.00,019.9,019.0,000.0,028.2,021.2,20.7,0001.8,0005.77,0009.32,0005.39
2023-12-12 20:21:00,SystemResetWarning,0832.5,4.99,000.00,019.9,019.0,000.0,028.2,021.2,20.8,0001.6,0005.74,0009.07,0005.38
2023-12-12 20:22:00,SystemResetWarning,0832.5,5.01,000.00,019.9,019.0,000.0,028.2,021.2,20.8,0000.0,0005.74,0009.07,0005.36
2023-12-12 20:23:00,SystemResetWarning,0832.4,5.01,000.00,019.9,019.0,000.0,028.2,021.2,20.8,0000.0,0005.74,0009.14,0005.36
2023-12-12 20:24:00,SystemResetWarning,0832.4,5.01,000.00,019.9,019.0,000.0,028.2,021.1,20.8,0000.0,0005.71,0009.44,0005.33
2023-12-12 20:25:00,SystemResetWarning,0832.4,5.00,000.00,019.9,019.0,000.0,028.2,021.2,20.8,0000.0,0005.70,0009.39,0005.30
2023-12-12 20:26:00,SystemResetWarning,0832.4,5.01,000.00,019.9,019.0,000.0,028.2,021.2,20.8,0000.0,0005.68,0009.41,0005.26
2023-12-12 20:27:00,SystemResetWarning,0832.4,4.99,000.00,019.9,019.0,000.0,028.2,021.2,20.8,0000.0,0005.67,0009.58,0005.24
2023-12-12 20:28:00,SystemResetWarning,0832.4,5.00,000.00,019.9,019.0,000.0,028.2,021.2,20.8,0000.0,0005.66,0009.85,0005.22
2023-12-12 20:29:00,SystemResetWarning,0832.4,5.00,000.00,019.9,019.0,000.0,028.2,021.1,20.8,0000.0,0005.63,0009.69,0005.20
2023-12-12 20:30:00,SystemResetWarning,0832.3,5.00,000.00,019.9,019.0,000.0,028.2,021.2,20.8,0000.0,0005.62,0009.38,0005.18
2023-12-12 20:31:00,SystemResetWarning,0832.3,4.99,000.00,019.9,019.0,000.0,028.2,021.1,20.8,0000.0,0005.56,0009.19,0005.14
2023-12-12 20:32:00,SystemResetWarning,0832.4,5.00,000.00,019.9,019.0,000.0,028.2,021.1,20.8,0000.0,0005.50,0009.07,0005.09
2023-12-12 20:33:00,SystemResetWarning,0832.3,5.00,000.00,019.9,019.0,000.0,028.2,021.1,20.8,0000.0,0005.45,0009.20,0005.05
2023-12-12 20:34:00,SystemResetWarning,0832.3,5.00,000.00,019.9,019.0,000.0,028.2,021.1,20.8,0000.0,0005.44,0009.23,0005.00
2023-12-12 20:35:00,SystemResetWarning,0832.3,5.01,000.00,019.9,019.0,000.0,028.2,021.1,20.8,0000.0,0005.43,0009.03,0004.96
2023-12-12 20:36:00,SystemResetWarning,0832.3,5.00,000.00,019.9,019.0,000.0,028.2,021.2,20.8,0000.0,0005.40,0009.07,0004.93
2023-12-12 20:37:00,SystemResetWarning,0832.3,5.00,000.00,019.9,019.0,000.0,028.2,021.1,20.9,0000.0,0005.37,0009.25,0004.91
2023-12-12 20:38:00,SystemResetWarning,0832.3,5.00,000.00,019.9,019.0,000.0,028.2,021.1,20.9,0000.0,0005.34,0009.31,0004.89
2023-12-12 20:39:00,SystemResetWarning,0832.3,5.00,000.00,019.9,019.0,000.0,028.2,021.1,20.9,0000.0,0005.31,0009.02,0004.87
2023-12-12 20:40:00,SystemResetWarning,0832.4,5.00,000.00,019.9,019.0,000.0,028.2,021.1,20.9,0000.0,0005.31,0009.08,0004.84
2023-12-12 20:41:00,SystemResetWarning,0832.3,5.00,000.00,019.9,019.0,000.0,028.2,021.1,20.9,0000.0,0005.25,0008.96,0004.81
2023-12-12 20:42:00,SystemResetWarning,0832.3,5.00,000.00,019.9,019.0,000.0,028.2,021.1,20.9,0000.0,0005.21,0008.99,0004.78
2023-12-12 20:43:00,SystemResetWarning,0832.3,5.00,000.00,019.9,019.0,000.0,028.2,021.1,20.9,0000.0,0005.23,0009.37,0004.77
2023-12-12 20:44:00,SystemResetWarning,0832.3,4.99,000.00,019.9,019.0,000.0,028.2,021.1,20.9,0000.0,0005.23,0009.68,0004.78
2023-12-12 20:45:00,SystemResetWarning,0832.3,5.00,000.00,019.9,019.0,000.0,028.2,021.1,20.8,0000.0,0005.24,0009.81,0004.77
2023-12-12 20:46:00,SystemResetWarning,0832.3,5.00,000.00,019.9,019.0,000.0,028.2,021.1,20.8,0000.0,0005.26,0009.86,0004.77
2023-12-12 20:47:00,SystemResetWarning,0832.3,5.00,000.00,019.9,018.9,000.0,028.2,021.1,20.8,0000.0,0005.25,0009.85,0004.76
2023-12-12 20:48:00,SystemResetWarning,0832.3,5.00,000.00,019.9,018.9,000.0,028.2,021.1,20.9,0000.0,0005.23,0009.67,0004.74
2023-12-12 20:49:00,SystemResetWarning,0832.3,5.00,000.00,019.9,018.9,000.0,028.2,021.1,20.9,0000.0,0005.20,0009.43,0004.70
2023-12-12 20:50:00,SystemResetWarning,0832.3,5.00,000.00,019.9,018.9,000.0,028.2,021.1,20.9,0000.0,0005.19,0009.53,0004.66
2023-12-12 20:51:00,SystemResetWarning,0832.3,5.00,000.00,019.9,018.9,000.0,028.2,021.1,20.8,0000.0,0005.15,0009.50,0004.61
2023-12-12 20:52:00,SystemResetWarning,0832.3,5.00,000.00,019.9,018.9,000.0,028.2,021.1,20.9,0000.0,0005.11,0009.47,0004.57
2023-12-12 20:53:00,SystemResetWarning,0832.3,5.01,000.00,019.9,018.9,000.0,028.2,021.1,20.9,0000.0,0005.11,0009.90,0004.56
2023-12-12 20:54:00,SystemResetWarning,0832.3,5.00,000.00,019.9,018.9,000.0,028.2,021.1,21.0,0000.0,0005.09,0009.93,0004.55
2023-12-12 20:55:00,SystemResetWarning,0832.3,5.00,000.00,019.9,018.9,000.0,028.2,021.1,21.0,0000.0,0005.05,0009.34,0004.53
2023-12-12 20:56:00,SystemResetWarning,0832.3,5.00,000.00,019.9,018.9,000.0,028.2,021.1,20.9,0000.0,0005.00,0009.07,0004.53
2023-12-12 20:57:00,SystemResetWarning,0832.4,5.00,000.00,019.9,018.9,000.0,028.2,021.1,20.9,0000.0,0004.99,0009.30,0004.53
2023-12-12 20:58:00,SystemResetWarning,0832.4,5.00,000.00,019.9,018.9,000.0,028.2,021.1,20.9,0000.0,0004.97,0009.45,0004.53
2023-12-12 20:59:00,SystemResetWarning,0832.5,5.00,000.00,019.9,018.9,000.0,028.2,021.1,20.9,0000.0,0004.99,0009.46,0004.52
